Powrót do katalogu

BREEZE-M DEB

TANK

AktywnyHEO
NORAD 28661·DEBRIS·🇷🇺 Russia

Wystrzelony May 22, 2005 z Baikonur Cosmodrome

Loading…

Następne Przeloty (najbliższe 24 godziny)

TLE

ŚwieżeSource: Space-Track

Epoka: Sep 12, 2026, 20:30 UTC

1 28661U 05019C   26255.85460293  .00001857  00000-0  44132-3 0  9993
2 28661  49.3817 117.0564 5811515 202.0135 116.6956  4.31149125297800

Śledź BREEZE-M DEB w czasie rzeczywistym z AllMySat

Download on the App Store